TimeMST,TemperatureF,Dew PointF,Humidity,Sea Level PressureIn,VisibilityMPH,Wind Direction,Wind SpeedMPH,Gust SpeedMPH,PrecipitationIn,Events,Conditions,WindDirDegrees,DateUTC
12:53 AM,12.0,7.0,80,30.41,10.0,Calm,Calm,-,N/A,,Overcast,0,2012-11-26 07:53:00
1:53 AM,12.0,8.1,84,30.41,10.0,Calm,Calm,-,N/A,,Overcast,0,2012-11-26 08:53:00
2:53 AM,10.9,6.1,81,30.41,10.0,ENE,3.5,-,N/A,,Mostly Cloudy,70,2012-11-26 09:53:00
3:53 AM,10.0,6.1,84,30.42,10.0,Calm,Calm,-,N/A,,Clear,0,2012-11-26 10:53:00
4:53 AM,9.0,6.1,88,30.40,10.0,SE,8.1,-,N/A,,Clear,130,2012-11-26 11:53:00
5:53 AM,9.0,5.0,84,30.40,10.0,NE,4.6,-,N/A,,Clear,40,2012-11-26 12:53:00
6:30 AM,12.2,6.8,79,30.25,10.0,North,4.6,-,N/A,,Mostly Cloudy,10,2012-11-26 13:30:00
6:37 AM,12.2,8.6,85,30.24,10.0,NNE,4.6,-,N/A,,Mostly Cloudy,30,2012-11-26 13:37:00
6:48 AM,14.0,10.4,86,30.24,10.0,ENE,3.5,-,N/A,,Overcast,60,2012-11-26 13:48:00
6:53 AM,14.0,10.0,84,30.39,10.0,Calm,Calm,-,N/A,,Overcast,0,2012-11-26 13:53:00
7:13 AM,15.8,10.4,79,30.24,10.0,Calm,Calm,-,N/A,,Overcast,0,2012-11-26 14:13:00
7:53 AM,16.0,12.0,84,30.39,10.0,Calm,Calm,-,N/A,,Overcast,0,2012-11-26 14:53:00
8:38 AM,17.6,12.2,79,30.24,10.0,North,3.5,-,N/A,,Overcast,10,2012-11-26 15:38:00
8:53 AM,18.0,15.1,88,30.39,10.0,Calm,Calm,-,N/A,,Overcast,0,2012-11-26 15:53:00
9:11 AM,19.4,17.6,93,30.24,2.5,Calm,Calm,-,N/A,,Overcast,0,2012-11-26 16:11:00
9:18 AM,19.4,17.6,93,30.24,4.0,Calm,Calm,-,N/A,,Overcast,0,2012-11-26 16:18:00
9:53 AM,21.0,19.0,92,30.38,6.0,Calm,Calm,-,N/A,,Overcast,0,2012-11-26 16:53:00
10:53 AM,24.1,21.9,91,30.38,10.0,WSW,4.6,-,N/A,,Overcast,250,2012-11-26 17:53:00
11:53 AM,25.0,23.0,92,30.34,10.0,Calm,Calm,-,N/A,,Overcast,0,2012-11-26 18:53:00
12:23 PM,26.6,24.8,93,30.19,10.0,Calm,Calm,-,N/A,,Overcast,0,2012-11-26 19:23:00
12:53 PM,28.0,24.1,85,30.31,10.0,Calm,Calm,-,N/A,,Scattered Clouds,0,2012-11-26 19:53:00
1:53 PM,30.0,25.0,82,30.28,10.0,Calm,Calm,-,N/A,,Clear,0,2012-11-26 20:53:00
2:53 PM,30.0,25.0,82,30.26,10.0,ESE,4.6,-,N/A,,Clear,120,2012-11-26 21:53:00
3:53 PM,28.0,24.1,85,30.26,10.0,East,3.5,-,N/A,,Clear,80,2012-11-26 22:53:00
4:53 PM,23.0,21.0,92,30.26,10.0,East,4.6,-,N/A,,Clear,100,2012-11-26 23:53:00
5:53 PM,23.0,21.0,92,30.25,10.0,Calm,Calm,-,N/A,,Clear,0,2012-11-27 00:53:00
6:53 PM,21.0,19.0,92,30.23,10.0,Calm,Calm,-,N/A,,Clear,0,2012-11-27 01:53:00
7:53 PM,19.9,18.0,92,30.24,6.0,Calm,Calm,-,N/A,,Clear,0,2012-11-27 02:53:00
8:44 PM,21.2,19.4,93,30.10,2.0,West,3.5,-,N/A,,Clear,270,2012-11-27 03:44:00
8:53 PM,21.9,19.9,92,30.22,3.0,WNW,3.5,-,N/A,,Clear,290,2012-11-27 03:53:00
9:01 PM,21.2,19.4,93,30.10,2.5,WNW,3.5,-,N/A,,Clear,300,2012-11-27 04:01:00
9:10 PM,21.2,19.4,93,30.10,4.0,Calm,Calm,-,N/A,,Scattered Clouds,0,2012-11-27 04:10:00
9:19 PM,19.4,17.6,93,30.10,4.0,Calm,Calm,-,N/A,,Mostly Cloudy,0,2012-11-27 04:19:00
9:34 PM,19.4,17.6,93,30.09,2.5,Calm,Calm,-,N/A,,Mostly Cloudy,0,2012-11-27 04:34:00
9:42 PM,19.4,17.6,93,30.09,5.0,Calm,Calm,-,N/A,,Mostly Cloudy,0,2012-11-27 04:42:00
9:50 PM,19.4,17.6,93,30.09,1.2,Calm,Calm,-,N/A,,Overcast,0,2012-11-27 04:50:00
9:53 PM,19.9,18.0,92,30.21,0.5,Calm,Calm,-,N/A,Fog,Light Freezing Fog,0,2012-11-27 04:53:00
10:02 PM,19.4,17.6,93,30.09,0.2,Calm,Calm,-,N/A,Fog,Light Freezing Fog,0,2012-11-27 05:02:00
10:22 PM,17.6,14.0,86,30.09,1.0,SW,3.5,-,N/A,,Mist,220,2012-11-27 05:22:00
10:24 PM,17.6,14.0,86,30.09,2.5,Calm,Calm,-,N/A,,Overcast,0,2012-11-27 05:24:00
10:31 PM,17.6,14.0,86,30.09,8.0,Calm,Calm,-,N/A,,Overcast,0,2012-11-27 05:31:00
10:39 PM,17.6,15.8,93,30.09,1.8,Calm,Calm,-,N/A,,Overcast,0,2012-11-27 05:39:00
10:42 PM,15.8,15.8,100,30.09,0.8,Calm,Calm,-,N/A,,Mist,0,2012-11-27 05:42:00
10:53 PM,16.0,14.0,92,30.21,0.8,Calm,Calm,-,N/A,,Mist,0,2012-11-27 05:53:00
11:04 PM,17.6,15.8,93,30.09,0.2,Calm,Calm,-,N/A,Fog,Light Freezing Fog,0,2012-11-27 06:04:00
11:45 PM,17.6,15.8,93,30.09,0.5,NNE,4.6,-,N/A,Fog,Light Freezing Fog,20,2012-11-27 06:45:00
11:53 PM,17.1,15.1,92,30.20,0.8,North,4.6,-,N/A,,Mist,10,2012-11-27 06:53:00
11:56 PM,17.6,15.8,93,30.09,1.2,North,4.6,-,N/A,,Scattered Clouds,10,2012-11-27 06:56:00
11:58 PM,17.6,15.8,93,30.09,2.0,North,4.6,-,N/A,,Partly Cloudy,10,2012-11-27 06:58:00